www.pogodaiklimat.ru

Погода и климат >> Архив погоды >> Украина >> Вознесенск


ПОГОДА в Вознесенске

  • Прогноз погоды в Вознесенске
  • Монитор погоды в Вознесенске

АРХИВ ПОГОДЫ в Вознесенске

Время (UTC), дата Ветер
(напр.,м/с)
 
Видим.   Явления Облачность Т
(С)
Тd
(С)
f
(%)
Тe
(С)
Тes
(С)
Комфортность P
(гПа)
Po
(гПа)
Тmin
(С)
Tmax
(С)
R
(мм)
R24
(мм)
S
(см)
18 14.09 СЗ 1 10 км 4/0
[Ac trans]
+18.2 +8.2 52 +19 +19 1024.0 1019.9 +26.4
21 14.09 СЗ 1 10 км ясно +12.5 +5.9 64 +13 +13 1025.0 1020.9
00 15.09 штиль 0 10 км 3/0
[Ci fib]
+9.6 +5.6 76 +9 +9 1026.0 1021.8
03 15.09 штиль 0 10 км 4/0
[Ci fib]
+7.1 +3.6 78 +6 +6 1026.5 1022.3
06 15.09 СЗ 1 20 км 9/0
[Cs]
+12.1 +3.6 56 +12 +12 1027.0 1022.8 +6.6
09 15.09 С 2 20 км 3/0
[Ci fib]
+21.2 +3.0 30 +21 +31 комфорт 1026.0 1022.0
12 15.09 С 2 20 км 4/0
[Ci fib]
+22.8 +2.3 26 +22 +28 комфорт 1024.0 1020.0
15 15.09 З 2 20 км 4/0
[Ci fib]
+23.5 +1.2 23 +23 +23 комфорт 1022.0 1018.0
18 15.09 Ю 1 10 км 3/0
[Ci fib]
+17.2 +3.8 41 +18 +18 1021.0 1016.9 +24.6
21 15.09 Ю 2 10 км 6/0
[Ci fib]
+15.6 +1.7 39 +16 +16 1021.0 1016.9
00 16.09 ЮЗ 2 10 км 3/0
[Ci fib]
+14.2 +4.8 53 +14 +14 1019.0 1014.9
03 16.09 штиль 0 10 км 4/0
[Ci fib]
+13.0 +6.1 63 +13 +13 1018.0 1013.9
06 16.09 Ю 1 20 км 3/0
[Ci fib]
+16.8 +7.2 53 +18 +20 1017.0 1012.9 +12.7
09 16.09 ЮЗ 2 20 км 3/0
[Ci fib]
+24.6 +6.3 31 +25 +31 комфорт 1016.0 1012.1
12 16.09 З 2 20 км 1/0
[Ci fib]
+27.8 +1.3 18 +26 +33 жарко 1013.0 1009.1
15 16.09 З 2 20 км ясно +27.4 +7.3 28 +27 +28 жарко 1011.0 1007.1
18 16.09 штиль 0 10 км ясно +19.9 +7.9 46 +21 +21 комфорт 1011.0 1007.0 +29.4
21 16.09 ЮВ 1 10 км 3/0
[Cc]
+17.3 +8.2 55 +18 +18 1012.0 1008.0
00 17.09 штиль 0 10 км 6/0
[Ac As Cc]
+15.2 +7.5 60 +15 +15 1011.0 1006.9
03 17.09 штиль 0 10 км 10/4 600 м
[Sc Ac As]
+14.0 +7.7 66 +14 +14 1011.0 1006.9
06 17.09 СЗ 1 20 км 10/8 600 м
[Sc Ac As]
+17.2 +8.1 55 +18 +18 1012.0 1008.0 +13.4
09 17.09 СЗ 2 20 км слаб. ливневой дождь 8/6 600 м
[Cb calv Ac As]
+15.4 +11.6 78 +15 +15 1012.0 1008.0
12 17.09 З 2 20 км {ливн. осадки} 8/0
[Ac trans Ci fib]
+20.5 +6.1 39 +22 +22 комфорт 1011.0 1007.0
15 17.09 З 1 20 км 8/0
[Ac trans Ci fib]
+20.0 +8.0 46 +22 +22 комфорт 1010.0 1006.0
18 17.09 СЗ 1 10 км слаб. ливневой дождь 10/10 600 м
[Cb cap]
+17.4 +9.3 59 +18 +18 1011.0 1007.0 +22.4 0.0
21 17.09 штиль 0 10 км {ливн. осадки} 9/9 600 м
[Sc]
+15.2 +11.6 79 +15 +15 1010.0 1006.0
00 18.09 ЮВ 1 10 км в посл. час ливневой дождь 10/8 600 м
[Cb cap Ac und]
+14.2 +12.1 87 +15 +15 1008.0 1004.0 0.7
03 18.09 штиль 0 20 км 10/10 600 м
[Sc]
+14.0 +11.3 84 +14 +14 1007.0 1003.0
06 18.09 штиль 0 20 км 10/4 600 м
[Sc Ac As]
+14.6 +11.0 79 +14 +14 1008.0 1004.0 +13.6 0.7
09 18.09 З 5 20 км 10/10 600 м
[Sc]
+15.8 +6.0 52 +15 +15 1010.0 1006.0
12 18.09 З 5 20 км 8/8 1000 м
[Cu med, cong Ac As]
+17.4 +1.8 35 +17 +17 1012.0 1008.0
15 18.09 СЗ 4 20 км 4/3 1000 м
[Cu med, cong Ac As]
+17.2 -2.0 27 +17 +17 1013.0 1009.0
18 18.09 З 2 10 км ясно +12.9 +2.2 48 +12 +12 1017.0 1012.9 +19.1
21 18.09 ЮЗ 3 10 км ясно +10.7 +2.8 58 +9 +9 1018.0 1013.9
00 19.09 З 1 10 км ясно +8.2 +2.6 68 +8 +8 1019.0 1014.8
03 19.09 штиль 0 10 км ясно +7.2 +2.7 73 +7 +7 1020.0 1015.8
06 19.09 З 2 20 км ясно +11.5 +3.3 57 +11 +13 1021.0 1016.9 +6.6
09 19.09 З 3 20 км 8/8 1000 м
[Cu med, cong]
+18.1 +1.1 32 +18 +18 1022.0 1017.9
12 19.09 З 3 20 км 8/8 1000 м
[Cu med, cong]
+19.5 -0.5 26 +20 +20 1020.0 1016.0
15 19.09 З 3 20 км 8/8 600 м
[Sc]
+18.4 -0.9 27 +19 +19 1020.0 1016.0
18 19.09 штиль 0 10 км 1/0
[Ac As]
+12.8 +2.4 49 +13 +13 1021.0 1016.9 +20.2
21 19.09 штиль 0 10 км 3/0
[Ci fib]
+8.4 +3.0 69 +8 +8 1021.0 1016.8
00 20.09 С 1 10 км 10/10 600 м
[Sc]
+7.9 +1.9 66 +7 +7 1021.0 1016.8
03 20.09 штиль 0 10 км 10/10 600 м
[Sc]
+6.5 +2.9 78 +6 +6 1020.0 1015.8
06 20.09 СЗ 1 20 км 8/3 600 м
[Sc Ac trans Cc]
+9.6 +3.6 66 +9 +9 1021.0 1016.8 +5.7
09 20.09 З 2 20 км 8/5 1000 м
[Cu med, cong Cc]
+16.5 +3.2 41 +17 +17 1019.0 1014.9
12 20.09 СЗ 3 20 км 9/8 600 м
[Cb cap Cs]
+18.6 +0.2 29 +19 +19 1018.0 1014.0
15 20.09 СЗ 2 20 км 6/4 600 м
[Sc diur, vesp Ac trans]
+15.3 +0.3 36 +15 +16 1019.0 1014.9
18 20.09 З 1 10 км 4/4 600 м
[Sc]
+10.4 +3.2 61 +10 +10 1020.0 1015.8 +20.1
21 20.09 С 1 10 км 3/0
[Ac As]
+6.7 +2.0 72 +6 +6 1021.0 1016.8
00 21.09 З 1 10 км 5/0
[Cc]
+3.6 +1.6 87 +2 +2 1021.0 1016.7
03 21.09 штиль 0 10 км ясно +3.0 +1.4 89 +2 +2 1022.0 1017.7
06 21.09 СЗ 1 20 км ясно +8.2 +2.2 66 +8 +11 1024.0 1019.8 +2.5
09 21.09 СЗ 3 20 км 8/8 600 м
[Sc diur, vesp]
+11.5 +1.2 49 +10 +10 1024.0 1019.8
12 21.09 СЗ 2 20 км 8/5 1000 м
[Cu med, cong Ci fib]
+14.7 -3.2 29 +15 +15 1023.0 1018.9

 

Местоположение метеостанции Вознесенск (Николаевская область, Украина): широта 47.57 долгота 31.33 высота над уровнем моря 34 м.

В архиве по умолчанию представлена погода в Вознесенске за последнюю неделю. Архивные данные за месяц целиком и за предыдущие месяцы, начиная с января 2011 года, Вы можете получить, выбрав интересующий диапазон дат из раскрывающегося списка и нажав кнопку "Ввод!".


*Определитесь, кто Вы:
робот инопланетянин человек

Внимание! Время в таблицах - всемирное. Для получения местного времени необходимо прибавить поправку, которая равна 2 ч.

Смотрите также архив погоды в соседних городах и на ближайших метеорологических станциях:

Погода в Первомайске (Николаевская область, Украина) (64 км)
Погода в Помошной (Кировоградская область, Украина) (74 км)
Погода в Сербке (Одесская область, Украина) (75 км)
Погода в Николаеве (Николаевская область, Украина) (76 км)
Погода в Бобринце (Кировоградская область, Украина) (83 км)
Погода в Любашевке (Одесская область, Украина) (85 км)
Погода в Баштанке (Николаевская область, Украина) (87 км)
Погода в Очакове (Николаевская область, Украина) (106 км)
Погода в Затишье (Одесская область, Украина) (112 км)
Погода в Долинской (Кировоградская область, Украина) (124 км)

Пояснения к столбцам:

Ветер - указаны скорость ветра в м/с - средняя за 10 мин, порывы в срок и между сроками (в фигурных скобках) и направление, откуда дует ветер: С - северный, СВ - северо-восточный, В - восточный, ЮВ - юго-восточный, Ю - южный, ЮЗ - юго-западный, З - западный, СЗ - северо-западный.
Видимость - горизонтальная дальность видимости в метрах или километрах. При видимости от 1 до 10 км при отсутствии осадков обычно наблюдается дымка, при ухудшении видимости до 1 км и менее - туман. В сухую погоду видимость может ухудшаться дымом, пылью или мглою.
Явления - указаны атмосферные явления, наблюдавшиеся в срок или в последний час перед сроком; фигурными скобками обозначены явления, наблюдавшиеся между сроками (за 1-3 часа до срока); квадратными скобками обозначены град или гололедные отложения с указанием их диаметра в мм.
Облачность - указаны через наклонную черту общая и нижняя облачность в баллах и высота нижней границы облаков в метрах; квадратными скобками обозначены формы облаков: Ci - перистые, Cs - перисто-слоистые, Cc - перисто-кучевые, Ac - высококучевые, As - высокослоистые, Sc - слоисто-кучевые, Ns - слоисто-дождевые, Cu - кучевые, Cb - кучево-дождевые. Подробнее классификацию облаков см. в Атласе облаков (PDF).
T - Температура воздуха - температура, измеренная на высоте 2 м над землей.
Td - Температура точки росы - температура, при понижении до которой содержащийся в воздухе водяной пар достигнет насыщения.
f - Относительная влажность воздуха - влажноcть воздуха, измеренная на высоте 2 м над землей.
Te - Эффективная температура - температура, которую ощущает одетый по сезону человек в тени. Характеристика душности погоды. При расчете учитывается влияние влажности воздуха и скорости ветра на теплоощущения человека.
Tes - Эффективная температура на солнце - температура, которую ощущает человек, с поправкой на солнечный нагрев. Характеристика знойности погоды. Зависит от высоты солнца над горизонтом, облачности и скорости ветра. Ночью, в пасмурную погоду, а также при ветре 12 м/с и более поправка равна нулю.
P - Атмосферное давление - приведенное к уровню моря атмосферное давление.
Po - Атмосферное давление - измеренное на уровне метеостанции атмосферное давление.
Tmin - Минимальная температура - минимум температуры воздуха на высоте 2 м над землей.
Tmax - Максимальная температура - максимум температуры воздуха на высоте 2 м над землей.
R - Количество осадков - Количество выпавших осадков за период времени, мм. При наведении курсора мыши на число - период времени, за который выпало указанное количество осадков.
R24 - Количество осадков - Количество выпавших осадков за 24 часа, мм.
S - Снежный покров - Высота снежного покрова, см. При наведении курсора мыши на число - состояние снежного покрова и степень покрытия местности в баллах.